Clearwater, FL

1:59 PM EST on December 02, 2016 (GMT -0500)
Saint Petersburg-Clearwater International

Weather History for KPIE - March, 2014

Change the Weather History Date:

Saturday, March 8, 2014

  Actual Average Record
Temperature  
Mean Temperature 57 °F -  
Max Temperature 66 °F 73 °F 86 °F (1998)
Min Temperature 48 °F 58 °F 42 °F (1954)
Degree Days  
Heating Degree Days 8    
Growing Degree Days 7 (Base 50)    
Moisture  
Dew Point 47 °F    
Average Humidity 72    
Maximum Humidity 87    
Minimum Humidity 52    
Precipitation  
Precipitation 0.00 in - - ()
Sea Level Pressure  
Sea Level Pressure 30.13 in    
Wind  
Wind Speed 9 mph (NNE)    
Max Wind Speed 13 mph    
Max Gust Speed -    
Visibility 10 miles    
Events      
Averages and records for this station are not official NWS values.
T = Trace of Precipitation, MM = Missing Value Source: NWS Daily Summary

Daily Weather History Graph

Daily Weather History Graph

Search for Another Location

Airport or City:

Trip Planner

Search our weather history database for the weather conditions in past years. The results will help you decide how hot, cold, wet, or windy it might be!

Date:

Astronomy

Mar. 08, 2014 Rise Set
Actual Time 6:47 AM EST 6:35 PM EST
Civil Twilight 6:24 AM EST 6:58 PM EST
Nautical Twilight 5:57 AM EST 7:26 PM EST
Astronomical Twilight 5:30 AM EST 7:53 PM EST
Moon 11:59 AM EST (3/8) 1:01 AM EST (3/8)
Length of Visible Light 12h 34m
Length of Day
11h 47m
First Quarter, 51% of the Moon is Illuminated
Mar 8
First Quarter
Mar 16
Full
Mar 23
Last Quarter
Mar 30
New
Apr 7
First Quarter

Hourly Weather History & Observations

Time (EST) Temp. Dew Point Humidity Pressure Visibility Wind Dir Wind Speed Gust Speed Precip Events Conditions
12:17 AM 48.9 °F 42.1 °F 77% 30.10 in 10.0 mi NE 11.5 mph - N/A   Scattered Clouds
12:53 AM 48.9 °F 41.0 °F 74% 30.10 in 10.0 mi NE 10.4 mph - N/A   Clear
1:53 AM 48.0 °F 42.1 °F 80% 30.10 in 10.0 mi North 3.5 mph - N/A   Clear
2:53 AM 50.0 °F 41.0 °F 71% 30.08 in 10.0 mi NNE 10.4 mph - N/A   Clear
3:53 AM 50.0 °F 42.1 °F 74% 30.06 in 10.0 mi NE 11.5 mph - N/A   Clear
4:53 AM 48.9 °F 42.1 °F 77% 30.09 in 10.0 mi NE 9.2 mph - N/A   Clear
5:53 AM 48.9 °F 42.1 °F 77% 30.10 in 10.0 mi ENE 10.4 mph - N/A   Clear
6:53 AM 48.0 °F 42.1 °F 80% 30.13 in 10.0 mi East 8.1 mph - N/A   Clear
7:53 AM 50.0 °F 43.0 °F 77% 30.16 in 10.0 mi East 5.8 mph - N/A   Partly Cloudy
8:53 AM 52.0 °F 44.1 °F 74% 30.17 in 10.0 mi East 6.9 mph - N/A   Clear
9:53 AM 55.0 °F 46.0 °F 72% 30.20 in 10.0 mi ENE 8.1 mph - N/A   Clear
10:53 AM 57.0 °F 46.9 °F 69% 30.20 in 10.0 mi NE 5.8 mph - N/A   Clear
11:53 AM 60.1 °F 46.9 °F 62% 30.18 in 10.0 mi North 4.6 mph - N/A   Clear
12:53 PM 63.0 °F 46.9 °F 56% 30.15 in 10.0 mi North 3.5 mph - N/A   Clear
1:53 PM 66.0 °F 48.0 °F 52% 30.12 in 10.0 mi Variable 4.6 mph - N/A   Clear
2:53 PM 66.9 °F 51.1 °F 57% 30.10 in 10.0 mi North 8.1 mph - N/A   Clear
3:53 PM 66.0 °F 51.1 °F 59% 30.09 in 10.0 mi NW 10.4 mph - N/A   Clear
4:53 PM 64.9 °F 51.1 °F 61% 30.09 in 10.0 mi NW 12.7 mph - N/A   Clear
5:53 PM 62.1 °F 52.0 °F 70% 30.10 in 10.0 mi NW 10.4 mph - N/A   Clear
6:53 PM 59.0 °F 52.0 °F 78% 30.13 in 10.0 mi NNW 10.4 mph - N/A   Clear
7:53 PM 59.0 °F 52.0 °F 78% 30.15 in 10.0 mi NNW 9.2 mph - N/A   Clear
8:53 PM 59.0 °F 52.0 °F 78% 30.16 in 10.0 mi NNW 8.1 mph - N/A   Clear
9:53 PM 59.0 °F 53.1 °F 81% 30.17 in 10.0 mi North 9.2 mph - N/A   Clear
10:53 PM 57.9 °F 54.0 °F 87% 30.17 in 10.0 mi North 5.8 mph - N/A   Clear
11:53 PM 57.9 °F 54.0 °F 87% 30.17 in 10.0 mi North 5.8 mph - N/A   Clear